Reggio Calabria, Italy

3:29 PM CET on December 12, 2017 (GMT +0100)
Reggio Calabria

Weather History for LICR - April, 2014

Change the Weather History Date:

Monday, April 21, 2014

  Actual Average Record
Temperature  
Mean Temperature 69 °F -  
Max Temperature 77 °F 71 °F 77 °F (2014)
Min Temperature 61 °F 58 °F 50 °F (2011)
Cooling Degree Days 4    
Growing Degree Days 19 (Base 50)    
Moisture  
Dew Point 53 °F    
Average Humidity 56    
Maximum Humidity 77    
Minimum Humidity 36    
Precipitation  
Precipitation 0.00 in - - ()
Sea Level Pressure  
Sea Level Pressure 29.71 in    
Wind  
Wind Speed 14 mph ()    
Max Wind Speed 29 mph    
Max Gust Speed 32 mph    
Visibility 6.2 miles    
Events      
Averages and records for this station are not official NWS values.
T = Trace of Precipitation, MM = Missing Value Source: Averaged Metar Reports

Daily Weather History Graph

Daily Weather History Graph

Search for Another Location

Airport or City:

Trip Planner

Search our weather history database for the weather conditions in past years. The results will help you decide how hot, cold, wet, or windy it might be!

Date:

Astronomy

Apr. 21, 2014 Rise Set
Actual Time 6:14 AM CEST 7:38 PM CEST
Civil Twilight 5:46 AM CEST 8:06 PM CEST
Nautical Twilight 5:13 AM CEST 8:39 PM CEST
Astronomical Twilight 4:38 AM CEST 9:14 PM CEST
Moon 12:53 AM CEST (4/21) 11:22 AM CEST (4/21)
Length of Visible Light 14h 19m
Length of Day
13h 24m
Waning Gibbous, 60% of the Moon is Illuminated
Apr 21
Waning Gibbous
Apr 22
Last Quarter
Apr 29
New
May 7
First Quarter
May 14
Full

Hourly Weather History & Observations

Time (CEST) Temp. Dew Point Humidity Pressure Visibility Wind Dir Wind Speed Gust Speed Precip Events Conditions
2:00 AM 64 °F 59 °F 77% 29.69 in - SW 24.2 mph - -  
5:00 AM 67 °F 55 °F 56% 29.56 in - WSW 28.8 mph - -  
5:50 AM 64.4 °F 55.4 °F 73% 29.56 in 6.2 mi SW 18.4 mph - N/A   Scattered Clouds
6:50 AM 66.2 °F 53.6 °F 64% 29.59 in 6.2 mi NNE 13.8 mph - N/A   Partly Cloudy
7:50 AM 66.2 °F 55.4 °F 68% 29.62 in 6.2 mi North 9.2 mph - N/A   Partly Cloudy
8:00 AM 67 °F 55 °F 57% 29.64 in - North 10.4 mph - -  
8:50 AM 68.0 °F 57.2 °F 68% 29.68 in 6.2 mi Variable 2.3 mph - N/A   Partly Cloudy
9:50 AM 69.8 °F 55.4 °F 60% 29.65 in 6.2 mi NE 4.6 mph - N/A   Partly Cloudy
10:50 AM 71.6 °F 57.2 °F 60% 29.65 in 6.2 mi North 11.5 mph - N/A   Partly Cloudy
11:00 AM 72 °F 55 °F 44% 29.67 in - North 12.7 mph - -  
11:50 AM 75.2 °F 53.6 °F 47% 29.65 in 6.2 mi North 13.8 mph - N/A   Partly Cloudy
12:50 PM 77.0 °F 53.6 °F 44% 29.68 in 6.2 mi North 15.0 mph - N/A   Partly Cloudy
1:50 PM 71.6 °F 57.2 °F 60% 29.68 in 6.2 mi NNW 19.6 mph - N/A   Partly Cloudy
2:00 PM 69 °F 57 °F 57% 29.69 in - NNW 21.9 mph - -  
2:50 PM 68.0 °F 57.2 °F 68% 29.71 in 6.2 mi North 20.7 mph 32.2 mph N/A   Partly Cloudy
3:50 PM 71.6 °F 51.8 °F 50% 29.71 in 6.2 mi North 16.1 mph - N/A   Partly Cloudy
4:50 PM 71.6 °F 50.0 °F 46% 29.74 in 6.2 mi North 16.1 mph - N/A   Partly Cloudy
5:00 PM 71 °F 50 °F 36% 29.75 in - North 16.1 mph - -  
6:50 PM 69.8 °F 46.4 °F 43% 29.77 in - North 11.5 mph - N/A   Clear
7:50 PM 64.4 °F 50.0 °F 59% 29.77 in - North 15.0 mph - N/A   Clear
8:00 PM 65 °F 49 °F 45% 29.80 in - North 15.0 mph - -  
8:50 PM 62.6 °F 51.8 °F 68% 29.83 in - North 16.1 mph - N/A   Clear
9:50 PM 64.4 °F 50.0 °F 59% 29.83 in - North 12.7 mph - N/A   Clear
10:50 PM 64.4 °F 48.2 °F 56% 29.86 in - North 15.0 mph - N/A   Clear
11:00 PM 64 °F 47 °F 43% 29.86 in - North 13.8 mph - -  
11:50 PM 64.4 °F 46.4 °F 52% 29.86 in - North 12.7 mph - N/A   Clear